Location: Peebles
(55.6412°N, 3.1714°W)
Time: 22:27:22
(UTC+01:00)

CENTAUR R/B - Pass Details

Date: 25 January 2022
Orbit: 716 x 1471 km, 63.4° (Epoch: 08 May)

Event Time Altitude Azimuth Distance (km) Brightness Sun altitude
Rises 23:23:20 0° 310° (NW) 4,058 6.3 -51.3°
Reaches altitude 10° 23:25:55 10° 308° (NW) 3,190 5.5 -51.5°
Enters shadow 23:27:08 16° 306° (NW) 2,803 5.2 -51.5°
